TimeEST,TemperatureF,Dew PointF,Humidity,Sea Level PressureIn,VisibilityMPH,Wind Direction,Wind SpeedMPH,Gust SpeedMPH,PrecipitationIn,Events,Conditions,WindDirDegrees,DateUTC
12:54 AM,52.0,27.0,38,30.13,10.0,Calm,Calm,-,N/A,,Overcast,0,2012-11-27 05:54:00
1:54 AM,48.9,30.0,48,30.11,10.0,Calm,Calm,-,0.00,,Overcast,0,2012-11-27 06:54:00
2:54 AM,45.0,30.9,58,30.10,10.0,Calm,Calm,-,N/A,,Mostly Cloudy,0,2012-11-27 07:54:00
3:54 AM,46.9,35.1,63,30.09,10.0,NNW,4.6,-,N/A,,Overcast,340,2012-11-27 08:54:00
4:54 AM,45.0,36.0,71,30.10,10.0,Calm,Calm,-,0.00,,Overcast,0,2012-11-27 09:54:00
5:54 AM,45.0,36.0,71,30.09,10.0,Calm,Calm,-,N/A,,Mostly Cloudy,0,2012-11-27 10:54:00
6:54 AM,45.0,37.0,74,30.09,10.0,Calm,Calm,-,N/A,,Overcast,0,2012-11-27 11:54:00
7:54 AM,44.1,37.0,76,30.10,10.0,NNW,6.9,-,N/A,,Mostly Cloudy,330,2012-11-27 12:54:00
8:54 AM,46.9,39.0,74,30.12,10.0,North,9.2,-,N/A,,Overcast,350,2012-11-27 13:54:00
9:54 AM,48.9,42.1,77,30.12,10.0,NNW,5.8,-,0.00,,Overcast,330,2012-11-27 14:54:00
10:54 AM,51.1,41.0,68,30.12,10.0,NNW,9.2,-,N/A,,Mostly Cloudy,340,2012-11-27 15:54:00
11:54 AM,51.1,42.1,71,30.12,10.0,NNW,11.5,-,N/A,,Overcast,340,2012-11-27 16:54:00
12:18 PM,50.0,44.6,82,30.14,10.0,North,13.8,21.9,N/A,,Overcast,350,2012-11-27 17:18:00
12:28 PM,50.0,44.6,82,30.14,10.0,NNW,16.1,-,N/A,,Overcast,340,2012-11-27 17:28:00
12:54 PM,50.0,43.0,77,30.11,10.0,North,15.0,24.2,N/A,,Overcast,350,2012-11-27 17:54:00
1:54 PM,48.9,42.1,77,30.11,10.0,NNW,15.0,23.0,N/A,,Overcast,340,2012-11-27 18:54:00
2:54 PM,48.2,41.0,76,30.12,10.0,NNW,13.8,-,N/A,,Overcast,340,2012-11-27 19:54:00
3:54 PM,48.0,41.0,77,30.12,10.0,North,13.8,19.6,N/A,,Overcast,350,2012-11-27 20:54:00
4:54 PM,46.0,39.9,79,30.14,10.0,North,10.4,-,N/A,,Overcast,350,2012-11-27 21:54:00
5:54 PM,45.0,39.0,80,30.16,10.0,North,9.2,-,N/A,,Mostly Cloudy,350,2012-11-27 22:54:00
6:17 PM,44.6,39.2,81,30.16,10.0,North,6.9,-,N/A,,Mostly Cloudy,360,2012-11-27 23:17:00
6:54 PM,44.1,39.0,82,30.17,10.0,NNW,13.8,-,N/A,,Overcast,340,2012-11-27 23:54:00
7:54 PM,43.0,39.0,86,30.19,10.0,NNW,10.4,-,N/A,,Scattered Clouds,340,2012-11-28 00:54:00
8:52 PM,42.8,39.2,87,30.20,10.0,North,6.9,-,N/A,,Mostly Cloudy,360,2012-11-28 01:52:00
8:54 PM,43.0,39.0,86,30.20,10.0,North,6.9,-,N/A,,Mostly Cloudy,360,2012-11-28 01:54:00
9:54 PM,44.1,39.0,82,30.20,10.0,North,10.4,-,N/A,,Overcast,350,2012-11-28 02:54:00
10:08 PM,42.8,37.4,81,30.21,10.0,NNW,10.4,-,N/A,,Overcast,340,2012-11-28 03:08:00
10:41 PM,42.8,37.4,81,30.21,10.0,NNW,12.7,-,N/A,,Overcast,340,2012-11-28 03:41:00
10:54 PM,43.0,37.9,82,30.20,10.0,NNW,13.8,-,N/A,,Overcast,340,2012-11-28 03:54:00
11:54 PM,43.0,37.0,80,30.22,10.0,NNW,10.4,-,N/A,,Overcast,340,2012-11-28 04:54:00